Date String (YYYY-MM-DD hh:mm:ss) UTC,Instrument flags,Ambient pressure (hPa),Sample flow (lpm),Bypass flow (lpm),Sample temperature (°C),Ambient temperature (°C),ASC tube jacket temperature (°C),LED temperature (°C),Box temperature (°C),Sample RH (%),Span deviation,Mass concentration (μg/m³),Mass concentration (μg/m³),Mass concentration (μg/m³)
DateTimeUTC,F1_M11,P_M11,Q1_M11,Q2_M11,T1_M11,T2_M11,T3_M11,T4_M11,T5_M11,U1_M11,ZSPAN_M11,X2_M11,X0_M11,X1_M11
2022-11-18 00:00:00,,0832.8,5.01,0.00,22.3,21.0,00.0,31.2,24.1,11.2,0000.0,0005.64,0008.11,0005.44
2022-11-18 00:01:00,,0832.8,4.99,0.00,22.3,21.0,00.0,31.2,24.1,11.2,0000.0,0005.60,0008.05,0005.40
2022-11-18 00:02:00,,0832.8,4.99,0.00,22.3,21.0,00.0,31.2,24.1,11.2,0000.0,0005.55,0007.97,0005.38
2022-11-18 00:03:00,,0832.9,5.01,0.00,22.3,20.9,00.0,31.2,24.1,11.2,0000.0,0005.51,0007.90,0005.36
2022-11-18 00:04:00,,0832.8,5.00,0.00,22.3,20.9,00.0,31.2,24.1,11.2,0000.0,0005.50,0007.88,0005.35
2022-11-18 00:05:00,,0832.8,4.99,0.00,22.3,20.9,00.0,31.2,24.1,11.2,0000.0,0005.54,0007.97,0005.36
2022-11-18 00:06:00,,0832.8,5.00,0.00,22.3,20.9,00.0,31.2,24.1,11.3,0000.0,0005.52,0007.93,0005.34
2022-11-18 00:07:00,,0832.8,5.00,0.00,22.3,20.9,00.0,31.2,24.1,11.3,0000.0,0005.51,0007.82,0005.33
2022-11-18 00:08:00,,0832.9,5.00,0.00,22.3,21.3,00.0,31.1,24.2,11.2,0000.0,0005.52,0007.78,0005.33
2022-11-18 00:09:00,,0832.8,5.01,0.00,22.4,22.1,00.0,31.1,24.4,11.2,0000.0,0005.51,0007.77,0005.32
2022-11-18 00:10:00,,0832.8,4.97,0.00,22.5,22.2,00.0,31.2,24.4,11.2,0000.0,0005.50,0007.75,0005.31
2022-11-18 00:11:00,,0832.8,5.00,0.00,22.5,21.9,00.0,31.2,24.4,11.1,0000.0,0005.52,0008.08,0005.32
2022-11-18 00:12:00,,0832.8,5.00,0.00,22.5,21.7,00.0,31.3,24.4,11.1,0000.0,0005.53,0008.10,0005.34
2022-11-18 00:13:00,,0832.8,4.99,0.00,22.4,21.5,00.0,31.3,24.3,11.1,0000.0,0005.56,0008.14,0005.36
2022-11-18 00:14:00,,0832.8,5.00,0.00,22.4,21.4,00.0,31.3,24.3,11.2,0000.0,0005.58,0008.15,0005.37
2022-11-18 00:15:00,,0832.8,4.99,0.00,22.4,21.3,00.0,31.3,24.3,11.2,0000.0,0005.59,0008.15,0005.38
2022-11-18 00:16:00,,0832.8,5.02,0.00,22.4,21.3,00.0,31.3,24.3,11.2,0000.0,0005.59,0008.13,0005.39
2022-11-18 00:17:00,,0832.7,5.00,0.00,22.4,21.2,00.0,31.3,24.2,11.2,0000.0,0005.61,0008.17,0005.41
2022-11-18 00:18:00,,0832.7,4.99,0.00,22.4,21.2,00.0,31.3,24.2,11.2,0000.0,0005.63,0008.27,0005.41
2022-11-18 00:19:00,,0832.8,5.01,0.00,22.4,21.2,00.0,31.3,24.2,11.2,0000.0,0005.62,0008.24,0005.42
2022-11-18 00:20:00,,0832.7,5.00,0.00,22.4,21.2,00.0,31.3,24.2,11.2,0000.0,0005.63,0008.24,0005.44
2022-11-18 00:21:00,,0832.7,5.01,0.00,22.4,21.1,00.0,31.3,24.2,11.2,0000.0,0005.65,0008.30,0005.44
2022-11-18 00:22:00,,0832.8,4.99,0.00,22.4,21.1,00.0,31.3,24.2,11.2,0000.0,0005.63,0007.99,0005.45
2022-11-18 00:23:00,,0832.8,5.00,0.00,22.4,21.1,00.0,31.3,24.2,11.2,0000.0,0005.62,0007.92,0005.44
2022-11-18 00:24:00,,0832.8,5.01,0.00,22.4,21.1,00.0,31.3,24.2,11.2,0000.0,0005.66,0007.99,0005.46
2022-11-18 00:25:00,,0832.7,5.01,0.00,22.4,21.0,00.0,31.3,24.2,11.3,0000.0,0005.67,0008.01,0005.48
2022-11-18 00:26:00,,0832.8,4.98,0.00,22.4,21.0,00.0,31.3,24.2,11.3,0000.0,0005.69,0008.05,0005.50
2022-11-18 00:27:00,,0832.9,5.01,0.00,22.4,21.0,00.0,31.3,24.1,11.3,0000.0,0005.70,0008.04,0005.51
2022-11-18 00:28:00,,0832.8,5.00,0.00,22.3,21.0,00.0,31.2,24.1,11.3,0000.0,0005.73,0008.08,0005.52
2022-11-18 00:29:00,,0832.8,4.99,0.00,22.3,21.0,00.0,31.2,24.1,11.3,0000.0,0005.76,0008.16,0005.55
2022-11-18 00:30:00,,0832.9,5.00,0.00,22.3,21.0,00.0,31.2,24.1,11.3,0000.0,0005.79,0008.18,0005.58
2022-11-18 00:31:00,,0833.0,5.01,0.00,22.3,21.0,00.0,31.2,24.1,11.3,0000.0,0005.82,0008.22,0005.60
2022-11-18 00:32:00,,0833.0,5.00,0.00,22.3,20.9,00.0,31.2,24.1,11.4,0000.0,0005.83,0008.20,0005.63
2022-11-18 00:33:00,,0832.9,4.99,0.00,22.3,20.9,00.0,31.2,24.1,11.4,0000.0,0005.85,0008.25,0005.65
2022-11-18 00:34:00,,0832.9,5.01,0.00,22.3,20.9,00.0,31.2,24.1,11.4,0000.0,0005.90,0008.34,0005.67
2022-11-18 00:35:00,,0832.9,4.99,0.00,22.3,20.9,00.0,31.2,24.1,11.4,0000.0,0005.89,0008.29,0005.68
2022-11-18 00:36:00,,0833.0,4.99,0.00,22.3,20.9,00.0,31.2,24.1,11.4,0000.0,0005.91,0008.31,0005.69
2022-11-18 00:37:00,,0833.1,5.01,0.00,22.3,21.1,00.0,31.1,24.1,11.4,0000.0,0005.93,0008.33,0005.70
2022-11-18 00:38:00,,0833.1,5.02,0.00,22.4,21.9,00.0,31.1,24.3,11.4,0000.0,0005.95,0008.37,0005.72
2022-11-18 00:39:00,,0833.1,4.98,0.00,22.5,22.3,00.0,31.1,24.5,11.4,0000.0,0005.97,0008.36,0005.75
2022-11-18 00:40:00,,0833.1,5.02,0.00,22.5,22.0,00.0,31.2,24.5,11.4,0000.0,0006.03,0008.28,0005.82
2022-11-18 00:41:00,,0833.1,5.00,0.00,22.5,21.7,00.0,31.2,24.4,11.4,0000.0,0006.11,0008.49,0005.89
2022-11-18 00:42:00,,0833.1,4.99,0.00,22.4,21.5,00.0,31.3,24.3,11.4,0000.0,0006.18,0008.60,0005.96
2022-11-18 00:43:00,,0833.1,5.01,0.00,22.4,21.2,00.0,31.3,24.2,11.4,0000.0,0006.23,0008.64,0006.01
2022-11-18 00:44:00,,0833.1,5.00,0.00,22.4,21.0,00.0,31.3,24.2,11.4,0000.0,0006.26,0008.63,0006.03
2022-11-18 00:45:00,,0833.1,4.99,0.00,22.3,20.9,00.0,31.3,24.1,11.4,0000.0,0006.26,0008.58,0006.05
2022-11-18 00:46:00,,0833.1,5.01,0.00,22.3,20.8,00.0,31.3,24.1,11.4,0000.0,0006.28,0008.63,0006.06
2022-11-18 00:47:00,,0833.1,5.01,0.00,22.3,20.7,00.0,31.3,24.0,11.4,0000.0,0006.28,0008.62,0006.05
2022-11-18 00:48:00,,0833.1,4.98,0.00,22.2,20.6,00.0,31.3,24.0,11.4,0000.0,0006.28,0008.66,0006.06
2022-11-18 00:49:00,,0833.1,5.00,0.00,22.2,20.7,00.0,31.2,24.0,11.4,0000.0,0006.27,0008.63,0006.07
2022-11-18 00:50:00,,0833.1,5.01,0.00,22.3,21.5,00.0,31.2,24.2,11.4,0000.0,0006.26,0008.58,0006.07
2022-11-18 00:51:00,,0833.1,5.00,0.00,22.4,22.2,00.0,31.2,24.4,11.3,0000.0,0006.21,0008.51,0006.01
2022-11-18 00:52:00,,0833.1,4.99,0.00,22.4,21.9,00.0,31.2,24.3,11.3,0000.0,0006.12,0008.35,0005.94
2022-11-18 00:53:00,,0833.1,5.01,0.00,22.4,21.6,00.0,31.2,24.3,11.2,0000.0,0006.04,0008.18,0005.86
2022-11-18 00:54:00,,0833.1,5.00,0.00,22.4,21.3,00.0,31.3,24.2,11.2,0000.0,0005.97,0008.12,0005.80
2022-11-18 00:55:00,,0833.1,5.00,0.00,22.3,21.1,00.0,31.3,24.1,11.2,0000.0,0005.94,0008.09,0005.76
2022-11-18 00:56:00,,0833.1,5.00,0.00,22.3,20.9,00.0,31.3,24.1,11.2,0000.0,0005.93,0008.07,0005.77
2022-11-18 00:57:00,,0833.1,5.00,0.00,22.2,20.8,00.0,31.3,24.0,11.2,0000.0,0005.90,0008.01,0005.75
2022-11-18 00:58:00,,0833.1,4.98,0.00,22.2,20.7,00.0,31.3,24.0,11.2,0000.0,0005.88,0007.98,0005.75
2022-11-18 00:59:00,,0833.1,5.01,0.00,22.2,20.6,00.0,31.2,23.9,11.3,0000.0,0005.86,0007.91,0005.73
